Wind_Speed
5 6 7 7 7 8 8 8 8 9 9 9 10 11 11 12 12 13 13 13 13 12 12 11 11 10 10 10 10 10 9 9 9 9 9 9 8 7 6 6 6 6 7
3 3 5 5 6 6 7 7 7 7 8 8 9 9 10 11 11 12 12 12 12 12 11 11 10 10 10 9 9 9 9 8 8 7 8 8 8 7 6 5 5 5 5
1 2 3 4 5 5 5 5 6 6 7 7 8 8 9 10 10 11 11 11 11 11 11 10 10 10 9 9 9 9 8 8 7 7 7 7 7 7 6 5 4 4 4
3 3 4 4 4 5 5 5 5 6 6 7 7 8 9 9 10 10 11 11 11 11 11 11 10 10 9 9 8 8 8 8 7 6 6 6 6 6 6 5 3 3 2
5 5 5 5 5 5 5 5 5 6 7 8 8 9 9 10 10 10 10 11 11 10 10 10 10 10 10 9 8 8 7 7 7 7 6 5 5 5 4 4 3 2 1
7 7 6 6 5 6 6 6 7 8 9 9 10 10 11 11 11 11 11 11 11 11 11 11 11 10 10 10 9 8 7 6 6 7 6 5 5 4 4 3 3 2 1
8 7 7 6 6 7 7 8 9 10 11 11 12 13 13 13 13 12 12 12 12 12 12 12 12 12 11 11 10 9 8 8 7 7 7 6 5 4 4 4 3 2 2
9 8 8 8 8 8 9 10 11 12 13 14 14 14 14 14 14 14 14 14 14 14 14 14 14 14 13 13 12 11 11 10 9 9 8 8 7 6 5 5 4 4 3
10 9 9 9 10 11 12 13 14 15 15 16 16 16 16 16 17 17 17 16 16 16 16 16 16 16 16 16 15 14 14 13 12 11 11 11 10 9 8 7 7 6 5
11 11 11 11 13 14 15 16 16 17 18 17 17 18 18 19 19 19 19 19 18 18 18 18 18 18 19 19 18 18 17 17 15 14 14 13 13 11 11 10 9 9 8
13 13 14 14 16 16 17 17 18 18 18 19 19 20 20 20 21 21 21 21 21 21 21 20 20 21 21 21 21 21 21 20 19 18 17 17 16 15 14 13 12 11 11
16 17 17 17 18 19 19 19 19 19 19 20 20 21 21 22 22 22 22 22 22 22 22 22 23 23 23 23 24 24 24 23 23 22 21 21 20 19 17 17 15 15 14
19 20 20 20 20 20 20 20 20 20 20 21 21 22 22 22 23 23 23 24 24 23 23 24 24 24 24 24 24 25 25 25 25 25 24 24 24 22 21 20 18 18 17
23 22 23 23 22 22 21 21 21 21 21 21 22 22 23 24 24 24 24 24 24 25 25 24 24 25 24 24 25 25 25 25 26 26 26 26 26 26 25 24 23 22 21
25 25 25 25 24 24 23 23 23 22 22 22 22 23 23 24 24 24 25 24 24 25 24 24 24 23 23 23 24 24 24 25 25 25 26 27 28 28 28 27 26 25 24
27 27 27 27 28 26 25 25 25 24 24 23 22 23 23 23 24 25 25 24 24 24 24 23 23 23 22 22 22 23 23 23 24 24 25 26 26 28 29 29 28 28 27
30 30 29 29 29 28 28 27 27 26 25 24 24 24 24 24 24 25 25 24 23 22 22 21 21 20 21 20 20 20 19 20 21 22 23 24 25 26 28 30 29 28 29
34 34 32 32 31 30 29 27 27 26 26 26 26 25 25 26 26 25 25 24 22 21 20 20 19 18 17 17 17 17 17 17 18 20 20 21 23 24 26 27 29 29 30
39 38 35 33 33 32 30 30 29 27 27 28 28 28 27 26 26 25 24 23 21 20 19 18 17 16 16 16 15 16 16 16 17 18 19 20 21 22 24 25 26 27 29
39 39 36 35 33 32 32 31 30 28 28 28 28 28 27 26 26 25 24 23 21 20 19 18 17 16 16 16 16 16 16 16 17 17 18 19 20 21 21 23 25 26 28
39 39 39 37 34 31 31 31 29 27 29 29 28 27 28 27 27 26 24 23 22 21 20 19 18 18 17 17 16 16 16 16 16 16 17 18 18 19 20 22 24 24 26
38 36 33 31 30 32 33 29 28 29 28 29 28 28 28 28 28 27 25 24 23 22 21 20 20 19 19 18 17 17 16 16 16 16 17 17 18 19 20 21 22 24 25
37 35 33 31 30 30 30 30 29 30 32 29 29 29 29 28 28 27 26 25 24 23 22 22 22 21 20 20 19 18 17 17 18 18 17 17 18 19 19 21 22 23 24
33 32 32 30 30 30 31 32 32 33 33 32 31 29 29 28 27 28 28 27 26 25 25 24 24 23 22 22 21 20 19 19 19 19 20 19 19 19 20 20 21 22 23
31 31 31 31 31 32 33 34 33 33 33 33 33 32 31 29 30 30 30 29 28 28 27 27 26 26 25 24 24 23 22 21 20 19 20 22 21 20 21 21 21 21 21
33 34 34 33 34 34 35 35 35 36 36 36 36 36 35 34 34 33 33 32 31 30 30 30 29 29 28 28 27 26 25 24 24 22 21 22 22 22 22 22 22 21 21
Wind_Direction
68 61 56 50 45 42 39 36 32 27 21 16 13 11 11 11 11 12 12 12 13 15 16 18 20 22 25 28 31 35 42 48 53 56 57 60 62 64 70 86 97 101 105
55 44 39 33 28 24 21 20 18 16 13 8 4 2 1 0 360 0 2 3 3 5 6 7 9 11 13 16 18 22 28 36 42 47 51 54 56 58 61 73 88 96 102
353 356 4 5 3 1 0 1 1 1 359 357 353 350 349 348 347 348 349 350 352 353 355 355 356 358 2 5 8 10 13 20 27 33 40 44 47 50 52 59 74 86 98
290 306 320 330 337 339 339 341 343 343 344 344 342 339 337 336 335 334 335 336 338 339 341 342 343 344 346 350 355 0 2 4 9 16 26 33 36 41 43 43 56 72 91
279 291 302 309 314 318 319 321 325 328 328 328 327 325 323 322 321 320 320 321 322 324 325 327 329 330 332 335 340 345 349 351 351 353 4 16 20 29 31 26 31 42 60
280 286 295 299 305 309 310 311 313 315 315 314 313 313 312 310 309 308 307 308 308 309 310 311 312 314 317 321 323 326 329 332 334 333 336 345 352 359 3 358 2 12 22
283 286 291 295 299 303 306 307 307 307 307 306 306 305 303 302 300 299 298 298 298 298 298 298 298 299 301 304 307 309 309 309 310 311 311 313 316 319 322 319 323 326 330
281 283 287 290 293 297 301 303 304 303 302 301 300 299 297 295 293 292 291 290 289 288 289 288 288 289 290 290 291 293 295 294 293 292 291 291 289 287 288 289 290 288 287
279 281 285 288 293 298 300 303 302 301 299 297 296 295 293 291 289 288 286 285 284 282 282 282 281 281 281 281 282 282 283 284 284 283 280 279 277 275 273 272 272 270 267
281 283 286 290 295 298 300 300 300 299 297 295 294 293 291 289 287 285 283 282 281 280 279 279 279 277 276 275 275 275 275 276 277 276 275 273 271 268 265 266 265 263 260
279 282 285 290 294 296 298 298 298 297 297 296 295 294 292 289 287 285 284 282 281 281 280 279 279 278 275 273 272 271 272 272 271 270 270 269 268 265 263 262 261 258 257
278 281 285 289 292 294 296 296 297 298 298 297 297 296 293 290 288 287 286 284 282 281 280 280 280 280 277 274 272 270 269 269 267 266 265 265 263 262 260 257 255 254 254
280 283 285 288 290 292 294 296 297 299 300 300 299 297 294 291 289 288 287 287 286 285 283 281 281 280 278 274 272 270 270 268 266 264 262 262 262 261 259 257 257 253 252
281 282 283 284 288 291 293 295 297 299 300 299 298 297 295 293 292 291 289 287 286 286 285 283 281 280 277 275 273 270 269 268 267 264 261 259 260 259 257 257 257 255 251
279 278 280 282 284 288 290 292 295 297 298 297 297 296 295 294 294 293 291 286 284 283 282 281 280 279 278 277 273 269 268 267 266 265 262 258 258 258 258 257 256 254 251
276 274 276 280 282 283 286 287 289 292 293 294 294 293 291 290 289 287 287 287 284 282 281 279 277 276 276 275 273 272 272 272 271 268 263 261 261 260 258 256 254 253 252
277 276 274 277 279 280 281 283 285 287 288 289 289 289 288 288 288 286 287 287 285 282 280 278 276 275 274 273 272 273 274 275 275 271 267 263 262 260 259 256 253 253 253
283 282 277 275 274 275 273 278 278 281 284 285 287 288 291 289 288 288 287 288 288 285 282 279 277 275 276 275 274 274 276 277 277 276 271 267 264 262 260 257 255 256 254
288 282 278 278 277 274 271 274 275 276 279 282 286 289 292 290 289 290 288 287 287 285 282 279 277 277 277 278 280 280 280 280 283 281 274 269 268 265 262 259 258 257 256
287 282 280 281 279 273 274 277 272 274 276 282 290 291 291 290 290 290 288 285 283 281 279 277 275 275 274 277 279 281 281 284 286 285 280 276 273 270 266 262 261 259 258
291 290 289 288 280 277 279 279 276 276 280 285 290 291 289 288 288 288 285 283 280 277 275 274 273 272 273 275 278 279 281 283 286 288 285 281 278 274 271 267 263 264 262
297 296 296 290 287 286 284 280 282 282 285 287 287 290 289 287 285 286 282 281 277 274 272 271 271 271 272 273 275 278 282 284 285 287 288 286 284 280 277 272 267 267 265
301 299 298 296 293 294 293 290 291 288 290 286 287 288 286 286 282 280 281 279 275 271 270 269 268 269 270 271 273 275 277 282 286 287 289 290 288 284 281 278 274 271 266
299 299 298 299 296 293 290 289 289 288 287 287 286 286 286 284 280 278 279 278 274 269 268 268 267 267 269 271 273 274 276 278 281 285 288 289 289 287 284 282 278 274 269
298 299 299 297 296 295 290 287 285 288 286 284 284 282 282 280 277 275 276 275 272 268 266 266 265 265 266 269 271 273 276 278 279 280 283 286 288 287 286 285 283 277 272
297 298 297 296 294 293 291 288 285 286 284 282 283 281 279 278 276 274 272 271 270 267 265 264 264 264 265 267 269 271 274 277 280 281 282 283 286 287 287 286 287 283 276
Height
5926 5925 5924 5923 5923 5922 5921 5921 5920 5919 5919 5918 5917 5916 5915 5914 5912 5911 5910 5908 5907 5905 5904 5902 5901 5900 5899 5898 5897 5896 5895 5894 5894 5893 5892 5891 5891 5890 5890 5890 5889 5889 5889
5927 5926 5925 5924 5923 5923 5922 5921 5921 5920 5919 5918 5917 5916 5915 5914 5912 5911 5910 5908 5907 5906 5904 5903 5902 5900 5899 5898 5897 5896 5895 5895 5894 5893 5893 5892 5891 5891 5890 5890 5890 5890 5890
5927 5926 5925 5924 5924 5923 5922 5922 5921 5920 5919 5918 5917 5916 5915 5914 5912 5911 5910 5908 5907 5905 5904 5903 5902 5901 5899 5898 5897 5896 5896 5895 5894 5893 5893 5892 5892 5891 5891 5890 5890 5890 5890
5927 5926 5925 5924 5924 5923 5922 5921 5920 5920 5919 5918 5917 5916 5914 5913 5912 5910 5909 5908 5906 5905 5904 5902 5901 5900 5899 5898 5897 5896 5896 5895 5894 5893 5893 5892 5892 5891 5891 5891 5891 5890 5890
5927 5926 5925 5924 5923 5922 5922 5921 5920 5919 5918 5917 5916 5915 5913 5912 5911 5909 5908 5907 5906 5904 5903 5902 5900 5899 5898 5897 5897 5896 5895 5894 5894 5893 5893 5892 5892 5891 5891 5891 5891 5890 5890
5926 5925 5924 5923 5922 5922 5921 5920 5919 5918 5917 5916 5914 5913 5911 5910 5909 5908 5906 5905 5904 5903 5902 5900 5899 5898 5897 5896 5896 5895 5895 5894 5893 5892 5892 5891 5891 5891 5891 5891 5891 5890 5890
5925 5924 5923 5922 5922 5921 5920 5919 5917 5916 5915 5914 5912 5911 5909 5908 5907 5905 5904 5903 5902 5901 5900 5898 5897 5896 5895 5895 5894 5894 5893 5893 5892 5892 5891 5890 5890 5890 5890 5890 5890 5890 5889
5923 5922 5922 5921 5920 5919 5918 5917 5915 5914 5912 5911 5909 5908 5906 5905 5903 5902 5901 5900 5899 5898 5897 5896 5895 5894 5893 5892 5892 5891 5891 5890 5890 5890 5890 5889 5889 5889 5888 5889 5889 5888 5888
5921 5921 5920 5919 5918 5917 5916 5914 5913 5911 5909 5908 5906 5904 5903 5901 5900 5898 5897 5896 5895 5894 5893 5892 5892 5891 5890 5889 5889 5888 5888 5888 5888 5887 5887 5887 5887 5886 5886 5886 5886 5887 5887
5919 5919 5918 5917 5916 5914 5913 5911 5909 5908 5906 5904 5902 5900 5899 5897 5895 5894 5892 5892 5891 5890 5889 5888 5887 5887 5886 5885 5885 5884 5884 5884 5884 5884 5884 5884 5883 5884 5884 5884 5884 5884 5884
5917 5916 5915 5914 5912 5911 5909 5907 5905 5904 5902 5900 5898 5896 5894 5892 5890 5889 5887 5886 5885 5885 5884 5883 5883 5882 5881 5881 5880 5880 5880 5879 5879 5879 5879 5880 5880 5880 5881 5881 5881 5881 5881
5914 5913 5912 5910 5909 5907 5905 5903 5901 5899 5897 5895 5893 5891 5889 5887 5885 5884 5882 5881 5880 5879 5879 5878 5877 5877 5876 5875 5875 5874 5874 5874 5874 5874 5874 5874 5875 5875 5876 5876 5877 5878 5878
5911 5909 5908 5906 5904 5902 5901 5899 5897 5895 5893 5891 5888 5886 5884 5882 5880 5879 5877 5876 5874 5874 5873 5872 5872 5871 5870 5869 5868 5868 5868 5868 5868 5868 5868 5868 5869 5870 5871 5871 5872 5873 5874
5907 5904 5902 5901 5899 5897 5895 5894 5892 5890 5888 5886 5883 5881 5879 5877 5875 5873 5872 5871 5869 5868 5867 5867 5866 5865 5864 5863 5862 5862 5861 5861 5861 5861 5862 5862 5863 5864 5865 5865 5867 5868 5869
5901 5899 5897 5895 5893 5892 5890 5889 5887 5885 5883 5880 5878 5876 5873 5872 5870 5868 5866 5865 5864 5863 5862 5861 5860 5859 5858 5857 5856 5855 5855 5855 5854 5855 5855 5855 5856 5857 5858 5859 5860 5861 5863
5895 5893 5891 5888 5887 5885 5884 5882 5881 5879 5877 5875 5872 5870 5868 5867 5865 5863 5861 5860 5858 5857 5856 5855 5855 5854 5853 5851 5850 5850 5849 5848 5848 5849 5849 5849 5850 5850 5851 5851 5852 5854 5855
5886 5885 5882 5880 5878 5876 5875 5874 5873 5871 5870 5868 5866 5864 5862 5860 5858 5857 5855 5853 5851 5850 5850 5849 5849 5848 5847 5846 5845 5845 5844 5843 5843 5842 5842 5843 5843 5843 5844 5844 5845 5847 5849
5877 5875 5873 5869 5867 5866 5864 5863 5863 5862 5862 5860 5857 5856 5854 5853 5851 5850 5848 5846 5845 5844 5844 5844 5843 5842 5842 5841 5841 5840 5839 5839 5838 5837 5836 5836 5837 5837 5837 5837 5838 5839 5841
5868 5864 5863 5859 5858 5856 5853 5852 5853 5853 5853 5851 5849 5848 5846 5845 5844 5843 5842 5841 5840 5839 5839 5838 5838 5837 5837 5837 5836 5836 5835 5834 5833 5832 5831 5830 5830 5831 5831 5831 5831 5832 5833
5860 5854 5852 5849 5847 5846 5845 5844 5843 5844 5844 5843 5842 5840 5839 5838 5837 5836 5836 5835 5834 5834 5833 5833 5833 5833 5832 5832 5832 5831 5830 5829 5828 5826 5825 5825 5824 5824 5824 5824 5824 5825 5826
5853 5846 5842 5839 5838 5837 5838 5836 5835 5836 5836 5835 5834 5833 5833 5831 5830 5830 5829 5829 5829 5828 5828 5828 5828 5828 5828 5827 5827 5827 5826 5825 5823 5822 5820 5819 5819 5818 5818 5818 5818 5818 5819
5846 5840 5834 5833 5831 5830 5828 5828 5828 5826 5826 5827 5827 5826 5825 5825 5824 5824 5823 5822 5822 5822 5822 5823 5823 5822 5822 5822 5822 5822 5821 5821 5819 5817 5816 5814 5813 5812 5812 5811 5811 5812 5812
5841 5837 5832 5829 5826 5824 5822 5822 5822 5821 5820 5819 5819 5819 5819 5818 5817 5817 5816 5816 5816 5816 5816 5816 5817 5817 5816 5816 5817 5817 5816 5816 5814 5813 5811 5809 5808 5807 5806 5805 5805 5805 5805
5837 5833 5829 5825 5822 5820 5819 5817 5816 5815 5813 5813 5812 5811 5811 5811 5810 5809 5809 5809 5809 5809 5809 5809 5809 5810 5810 5810 5810 5810 5810 5810 5809 5808 5806 5804 5803 5801 5800 5799 5799 5798 5798
5831 5827 5823 5820 5817 5814 5812 5810 5809 5807 5806 5805 5805 5804 5804 5803 5802 5802 5801 5801 5801 5801 5801 5801 5802 5802 5803 5803 5803 5803 5803 5803 5803 5803 5801 5799 5797 5796 5795 5794 5793 5792 5792
5824 5820 5816 5813 5810 5807 5805 5802 5800 5799 5798 5797 5796 5795 5794 5794 5793 5793 5792 5792 5792 5792 5792 5792 5793 5794 5795 5795 5795 5796 5796 5796 5796 5796 5795 5794 5792 5790 5789 5788 5787 5786 5786